STARLINK-33838, 63500

Orbit data source: Space-Track

STARLINK-33838, 63500 is a payload satellite owned by SpaceX/Seattle (US) in LEO that was launched on Mon, 07 Apr 2025 UTC via an FALCON 9 launch vehicle from the Air Force Western Test Range (AFWTR). Payload-class satellites include a variety of spacecraft equipped with specific instruments for various scientific and technological missions. These include communications satellites like Starlink; space stations such as the ISS; scientific satellites like the Hubble; Earth observation satellites from companies like Planet Labs, Umbra, and HawkEye 360; GPS; miniature CubeSats for education and research; and military/defense satellites.

Loading next visibility...
Identifier
63500, 2025-071H
Orbit
LEO
Last TLE update
10 hours ago
Origin
Manufacturer
SpaceX/Seattle
Mission
Operational Commercial Communications
Bus & Motor
STARLINK V2MO, Unknown motor
Mass
575 kg wet, ~530 kg dry
Launch date (UTC)
2025-04-07 (1 month ago)
Launch vehicle
FALCON 9
Launch site
Air Force Western Test Range (AFWTR)
Object type
Payload
Rocket body
Debris
Shape & HBR
Box + 1 Pan, 29 m
Radar Cross Section
41.120 m², Large (>1 m²)

Expand to show TLE details & history

TLE from 10 hours ago
0 STARLINK-33838
1 63500U 25071H   25128.96633577  .00063480  00000-0  11199-2 0  9997
2 63500  53.1616 119.7162 0002103 274.8468  85.2301 15.49818068  5846
Epoch: 2025-05-08T23:11Z
Definitive object data (Epoch: 2025-05-08T23:11:31.41Z)
Latitude
-0.00004°
Longitude
-95.19395°
Altitude
418.047 km
Speed
7.662 km/s
True Right ascension
07h 58m 51s
True Declination
0° 00' 00"
Sunlit
Object was in daylight at TLE epoch
Visualization TLE readout
Latitude
-53.31249°
Longitude
173.44956°
Altitude
434.207 km
Speed
7.652 km/s
Apparent Right ascension
04h 02m 20s
Apparent Declination
-50° 30' 06"
Sunlit
Object is in daylight
Visualization observer readout
Local Sidereal Time
17:47:46
Azimuth
128.687° SE
Elevation
-68.791°
Doppler factor
1
Orbital elements
Apogee altitude
418.945 km
Perigee altitude
416.087 km
Semi-major axis
6,795.653 km
Eccentricity
0.0002103
Inclination
53.1616°
RAAN
119.7162°
Arg. of periapsis
274.8468°
True anomaly
85.25412°
Mean anomaly
85.2301°
Eccentric anomaly
85.24211°
Mean motion
3.87433 °/min
BSTAR
0.0011199
Orbital period
92.92 mins
Loading maneuver chart data...
Loading SW <> Apogee altitude chart data...
Loading historical data...
Loading historical data...
Loading historical data...
Loading historical data...
Loading historical data...
Loading historical data...
Loading historical data...

STARLINK-33838 Visibility forecast

Observer location: undefined°, undefined°

Span
Click to sort rows by Start time (UTC) header in descending order
Start Az.
Max El. time (UTC)
Max El. Az.
Max El.
End time (UTC)
End Az.
5 mins2025-05-10 01:40:25.178Z214.57° SW2025-05-10 01:43:25.178Z112.501° SE39.643°2025-05-10 01:45:25.178Z61.157° ENE
4 mins2025-05-10 08:11:25.178Z337.073° NNW2025-05-10 08:13:25.178Z61.668° ENE32.839°2025-05-10 08:15:25.178Z104.431° ESE
|